Regional Weather Roundup
Issued by NWS Pendleton, OR

Home | Current Version | Previous Version | Text Only | Print | Product List | Glossary On
Versions: 1 2 3 4 5 6 7 8 9 10 11 12 13 14 15 16 17 18 19 20 21 22 23 24 25 26 27 28 29 30 31 32 33 34 35 36 37 38 39 40 41 42 43 44 45 46 47 48 49 50
000
ASUS46 KPDT 270525
RWRPDT
PENDLETON REGIONAL WEATHER ROUNDUP
NATIONAL WEATHER SERVICE PENDLETON OREGON
1000 PM PDT THU MAR 26 2015

NOTE: FAIR INDICATES FEW OR NO CLOUDS BELOW 12,000 FEET WITH NO
SIGNIFICANT WEATHER AND/OR OBSTRUCTIONS TO VISIBILITY.

# INDICATES UNOFFICIAL STATION AND DATA

WAZ520-270610-
EAST SLOPES OF WASHINGTON CASCADES

CITY            SKY/WX      TMP DP  RH  WIND    PRES   REMARKS
#BUMPING DAM    N/A         43  N/A N/A CALM    N/A
#CLE ELUM HS    N/A         48  45  89  CALM    30.13R
#CLE ELUM LAKE  N/A         50  46  86  CALM    30.15S
#CLIFFDEL 2NW   N/A         50  46  86  CALM    N/A
#GLENWOOD       N/A         47  45  93  CALM    30.14S
#MANASTASH CYN  N/A         47  41  79  CALM    30.16S
#NELSON 3SW     N/A         45  44  96  CALM    30.41R
#NILE           N/A         46  44  93  CALM    29.44R
#RONALD 2NW     N/A         52  12  20  CALM    30.05R
#SNOWDEN        N/A         63  35  35  CALM    N/A
#TEANAWAY 4NE   N/A         50  47  89  CALM    N/A
#TROUT LAKE 1NE N/A         49  47  93  W1      30.15S
$$

WAZ521-270610-
SIMCOE HIGHLANDS

CITY            SKY/WX      TMP DP  RH  WIND    PRES   REMARKS
#CENTERVILLE 4W N/A         56  48  74  NE5     29.90
#CENTERVILLE 1SWN/A         50  46  86  CALM    30.12R
#GOLDENDALE     N/A         56  49  77  E3      N/A
#GOLDENDALE 1NE N/A         53  39  59  CALM    N/A
#GOLDENDALE 5WNWN/A         51  47  86  N1      30.12S
#GOODNOE HILLS  N/A         62  48  60  NE3     N/A
#LYLE 6NE       N/A         57  49  75  CALM    30.10S
$$

WAZ026-270610-
KITTITAS VALLEY

CITY            SKY/WX      TMP DP  RH  WIND    PRES   REMARKS
ELLENSBURG AP   PTCLDY      55  47  74  CALM    30.17S
#ELLENSBURG CWU N/A         57  49  75  CALM    30.11R
#ELLENSBURG 3NE N/A         50  46  86  E2      30.16S
#ELLENSBURG 1E  N/A         56  46  69  CALM    N/A
#KITTITAS 4N    N/A         53  45  74  E1      28.48S
#KITTITAS 3S    N/A         49  45  86  CALM    30.14S
#THORP 6N       N/A         54  48  80  E3      30.19S
$$

WAZ027-270610-
YAKIMA VALLEY

CITY            SKY/WX      TMP DP  RH  WIND    PRES   REMARKS
SUNNYSIDE AP    PTCLDY      53  47  80  CALM    30.14S
YAKIMA AIRPORT  PTCLDY      55  47  74  W7      30.16S
#DONALD 2NE     N/A         60  44  55  CALM    29.00S
#MABTON         N/A         58  49  72  CALM    30.14S
#MOXEE 2E       N/A         59  42  53  E7      30.06R
#NACHES 2SW     N/A         54  48  80  CALM    30.18R
#OUTLOOK DOT    N/A         N/A N/A N/A N1      N/A
#SELAH 8E       N/A         52  48  86  E3      N/A
#TERRACE HTS    N/A         57  50  77  CALM    30.11S
#TOPPENISH      N/A         60  51  72  CALM    30.06R
#WAPATO 4NE     N/A         60  44  55  CALM    29.00S
#WEST VALLEY    N/A         57  49  75  CALM    30.13S
#W YAKIMA       N/A         59  50  72  CALM    30.15S
#WHITE SWAN 5E  N/A         55  50  83  CALM    30.14F
#WILEY CITY 3W  N/A         54  45  71  CALM    30.16R
$$

WAZ028-270610-
LOWER COLUMBIA BASIN...WASHINGTON

CITY            SKY/WX      TMP DP  RH  WIND    PRES   REMARKS
PASCO           CLEAR       51  48  89  N5      30.14S
PROSSER AWOS    N/A         52  50  93  N3      30.17S
RICHLAND AWOS   PTCLDY      57  52  83  CALM    30.15R
#BASIN CITY 5SW N/A         55  49  80  NE3     30.14S
#BENTON CITY    N/A         61  49  65  CALM    30.04S
#CONNELL 5N     N/A         54  47  77  N1      30.14S
#CONNELL 5NW    N/A         54  48  80  CALM    30.11S
#ELTOPIA        N/A         57  49  75  N3      30.10S
#KAHLOTUS       N/A         57  48  72  S3      30.14S
#KENNEWICK 3S   N/A         56  46  69  CALM    30.14R
#PASCO-BROADMOORN/A         57  48  72  CALM    30.03R
#PATERSON       N/A         60  48  64  NE2     30.11R
#PROSSER        N/A         61  45  56  CALM    30.13S
#SAGEMOOR 2W    N/A         59  50  72  CALM    29.98S
#TOUCHET 2S     N/A         53  49  86  CALM    30.11S
#WEST PASCO     N/A         57  46  67  CALM    30.14S
$$

WAZ029-270610-
FOOTHILLS OF THE BLUES...WASHINGTON

CITY            SKY/WX      TMP DP  RH  WIND    PRES   REMARKS
WALLA WALLA AP  CLEAR       57  48  72  E8      30.14S
#DAYTON SCHOOL  N/A         55  44  66  N5      30.17S
#LOWDEN 2SE     N/A         54  49  83  CALM    30.10S
#PLEASANT VIEW 1N/A         58  47  67  CALM    30.19S
#PRESCOTT       N/A         55  50  83  CALM    30.12F
#SUDBURY        N/A         53  N/A N/A CALM    N/A
#WHITMAN COLLEGEN/A         61  50  67  NE2     30.17R
#WAITSBURG 5S   N/A         55  48  77  NE7     30.22S
#WAITSBURG 8N   N/A         56  30  37  NW3     30.00S
#WALLA WALLA 5E N/A         54  48  80  NE6     N/A
#WALLA WALLA U  N/A         58  50  75  CALM    30.12S
#WHITMAN MISSIONN/A         54  49  83  CALM    30.14S
$$

WAZ030-270610-
BLUE MOUNTAINS...WASHINGTON

CITY            SKY/WX      TMP DP  RH  WIND    PRES   REMARKS
#DIXIE 5SE      N/A         60  39  46  CALM    30.12S
$$

ORZ009-041-WAZ024-270610-
COLUMBIA RIVER GORGE

CITY            SKY/WX      TMP DP  RH  WIND    PRES   REMARKS
HOOD RIVER AP   CLEAR       54  48  80  CALM    30.14S
THE DALLES AP   CLEAR       57  50  77  CALM    30.12S
#ARLINGTON AIRPON/A         60  48  64  NW3     N/A
#CELILO DOT     N/A         60  45  58  CALM    N/A
#LYLE           N/A         58  52  80  N3      30.14R
#MOSIER 1S      N/A         56  46  69  CALM    30.12S
#MURDOCK        N/A         60  54  81  NW3     30.14R
#RUFUS DOT      N/A         N/A N/A N/A CALM    N/A

$$

ORZ510-270610-
NORTH CENTRAL OREGON

CITY            SKY/WX      TMP DP  RH  WIND    PRES   REMARKS
#CHENOWITH 1W   N/A         59  48  67  E3      N/A
#COW CYN RST AREN/A         58  47  67  N6      N/A
#DUFUR 9E       N/A         60  49  67  E10     30.17F
#GRASS VALLEY 1SN/A         53  48  83  CALM    30.15F
#KENT DOT       N/A         54  43  66  NE6     N/A
#MAUPIN SCHOOL  N/A         61  51  70  CALM    30.15R
#MORO SCHOOL    N/A         49  47  93  S1      30.16S
#SHANIKO 5WSW   N/A         56  42  59  NE15    N/A
#SHANIKO 4NW    N/A         54  47  77  E8      30.18S
#TYGH VALLEY 2NEN/A         58  50  75  CALM    30.12S
#WAPANITIA AIRPON/A         54  49  83  W2      30.15S
#WASCO DOT      N/A         48  45  89  SE2     N/A
#WASCO AIRPORT  N/A         55  47  74  E2      N/A
#WASCO 5NE      N/A         46  42  86  CALM    30.14S
$$

ORZ511-270610-
CENTRAL OREGON

CITY            SKY/WX      TMP DP  RH  WIND    PRES   REMARKS
BEND AIRPORT    CLEAR       55  41  59  W5      30.18R
MADRAS AIRPORT  CLEAR       52  46  80  NW6     30.17R
PRINEVILLE AP   CLEAR       50  45  83  SE7     30.17R
REDMOND AIRPORT CLEAR       57  46  67  NW12    30.16R
#BEND 6E        N/A         56  41  57  CALM    30.05F
#BEND 1SW       N/A         50  44  80  CALM    N/A
#BEND-AWBREY    N/A         56  44  64  CALM    30.13S
#BEND-KIM LN    N/A         57  44  62  CALM    30.17R
#CULVER         N/A         54  46  74  CALM    30.13R
#LAKE BILLY CHINN/A         59  29  32  SW2     30.20R
#POWELL BUTTE   N/A         54  42  64  W3      29.79R
#PRINEVILLE 3N  N/A         54  46  74  E3      30.08R
#WARM SPRINGS   N/A         62  50  65  S5      30.10R

$$


ORZ509-270610-
EAST SLOPES OF OREGON CASCADES

CITY            SKY/WX      TMP DP  RH  WIND    PRES   REMARKS
#BLUE BOX PASS  N/A         51  -1  11  CALM    N/A
#CAMP SHERMAN   N/A         46  41  83  CALM    30.22S
#LA PINE 4NW    N/A         50  41  71  CALM    30.21R
#LAVA BUTTE DOT N/A         48  38  68  CALM    N/A
#SISTERS AIRPOR N/A         50  47  89  CALM    30.17S
#SISTERS ODOT   N/A         49  N/A N/A CALM    N/A
#SISTERS 1NW    N/A         49  42  77  NE6     N/A
#SISTERS 3N     N/A         47  37  68  CALM    30.19S
#SUNRIVER       N/A         49  43  80  CALM    30.06R
#TUMALO 3W      N/A         59  44  57  NW5     30.00S
#WANOGA BUTTE D N/A         53  37  54  CALM    N/A

$$

ORZ044-270610-
LOWER COLUMBIA BASIN...OREGON

CITY            SKY/WX      TMP DP  RH  WIND    PRES   REMARKS
HERMISTON       CLEAR       54  47  77  S5      30.12S
#BOARDMAN SCHOOLN/A         59  48  67  CALM    30.13S
#BOARDMAN 8SW   N/A         57  48  72  CALM    30.12S
#ECHO 8SW       N/A         51  38  61  SW2     30.10S
#IONE SCHOOL    N/A         54  38  55  CALM    30.12F
#IRRIGON 4NW    N/A         57  49  75  E1      N/A
#UMATILLA       N/A         71  48  44  CALM    30.04S
$$

ORZ507-270610-
NORTHERN FOOTHILLS OF THE BLUES

CITY            SKY/WX      TMP DP  RH  WIND    PRES   REMARKS
PENDLETON AIRPT CLEAR       57  46  67  E15     30.13S
#ADAMS 3WNW     N/A         55  46  72  E3      30.13S
#ATHENA         N/A         51  46  83  CALM    30.15S
#CAYUSE         N/A         62  49  62  CALM    30.11R
#HELIX SCHOOL   N/A         57  45  64  NE5     30.13S
#HELIX 3N       N/A         56  45  66  E6      30.12R
#HOLDMAN 5SE    N/A         59  46  62  CALM    30.13S
#HOLDMAN 6E     N/A         56  45  66  SW6     29.94S
#M-F FERNDALE   N/A         58  47  67  CALM    30.12S
#M-FREEWATER 5SEN/A         59  47  64  CALM    30.14S
#PENDLETON DNTN N/A         57  41  55  E2      30.14S
#PDT AQUATIC CTRN/A         57  41  55  E1      30.13S
#PENDLETON 5NE  N/A         54  47  77  CALM    30.11R
#PDT SUNRIDGE   N/A         53  47  80  CALM    30.15R
#PENDLETON 7NW  N/A         56  46  69  CALM    N/A
#PILOT ROCK     N/A         55  46  72  CALM    30.16S
#TUTUILLA       N/A         50  45  83  E1      30.14R
#UMAPINE 2E     N/A         53  48  83  CALM    30.10S
#WESTON SCHOOL  N/A         58  43  57  SW1     30.14S

$$

ORZ508-270610-
SOUTHERN FOOTHILLS OF THE BLUES

CITY            SKY/WX      TMP DP  RH  WIND    PRES   REMARKS
LEXINGTON       CLEAR       55  48  77  SE3     30.16S
#AJAX           N/A         57  42  57  N1      30.08F
#CONDON SCHOOL  N/A         55  48  77  CALM    30.12S
#CONDON 5W      N/A         56  44  64  NE9     30.15F
#FOSSIL SCHOOL  N/A         52  48  86  CALM    30.13S
#HEPPNER EOC    N/A         57  47  69  CALM    30.08R
#HEPPNER 4NE    N/A         54  44  69  CALM    30.12R
#LEXINGTON 2SE  N/A         54  46  74  W2      30.12R
#MIKKALO        N/A         51  45  80  NE1     30.14S
#OLEX 4N        N/A         57  46  67  S2      30.13S
#RUGGS 5NE      N/A         55  46  72  S1      30.33S
#RUGGS 2SW      N/A         54  48  80  NW1     30.14S

$$

ORZ502-503-270610-
BLUE MOUNTAINS

CITY            SKY/WX      TMP DP  RH  WIND    PRES   REMARKS
MEACHAM         CLEAR       43  40  89  CALM    30.23S
#BATTLE MTN DOT N/A         52  47  83  SE5     N/A
#HARDMAN 10S    N/A         54  43  66  CALM    30.28F
#HEPPNER 15SE   N/A         47  42  83  CALM    30.13S
#LADD CYN SMT   N/A         51  38  61  SE5     N/A
#LADD CREEK ODOTN/A         48  37  65  SW7     N/A
#LONG CREEK HS  N/A         50  45  83  CALM    30.16S
#N POWDER DOT   N/A         47  41  79  W2      N/A
#PIKES PEAK     N/A         62  42  48  S10     27.99S
#TOLLGATE       N/A         45  40  82  CALM    30.18F
#TROY SCHOOL    N/A         50  46  86  CALM    30.06R
#UKIAH          N/A         44  41  89  CALM    30.24R
#WESTON 4E      N/A         57  44  62  E9      30.10F
$$

ORZ505-270610-
JOHN DAY BASIN

CITY            SKY/WX      TMP DP  RH  WIND    PRES   REMARKS
JOHN DAY        CLEAR       56  44  64  SE6     30.24R
#JOHN DAY KJDY  N/A         51  50  96  CALM    30.16R
#DAYVILLE SCHOOLN/A         57  45  64  CALM    30.13S
#MITCHELL       N/A         52  48  86  E6      30.29S
#MONUMENT HS    N/A         55  46  72  CALM    30.15R
#MT. VERNON 5SE N/A         58  43  57  S6      30.18S
$$

ORZ506-270610-
OCHOCO AND JOHN DAY HIGHLANDS

CITY            SKY/WX      TMP DP  RH  WIND    PRES   REMARKS
#BUCK CREEK DOT N/A         57  57  100 SE9     N/A
#HORSE RIDGE DO N/A         48  39  71  E3      N/A
#KEYES SMT DOT  N/A         54  42  64  CALM    N/A
#PAULINA SCHOOL N/A         64  43  46  CALM    30.15S
#PINE MTN OBS   N/A         52  38  59  E2      N/A
#PRAIRIE CITY   N/A         43  36  76  NE1     30.31R
#SENECA         N/A         46  N/A N/A CALM    N/A
#SENECA 9NW     N/A         41  38  89  CALM    30.23R
$$

ORZ049-270610-
GRANDE RONDE VALLEY

CITY            SKY/WX      TMP DP  RH  WIND    PRES   REMARKS
LA GRANDE       CLEAR       59  37  44  S10     30.21S
#COVE           N/A         49  43  80  SE1     30.21S
#COVE SCHOOL    N/A         50  42  74  E2      30.18S
#ELGIN 3N       N/A         46  40  79  CALM    30.19S
#ELGIN 1E       N/A         49  43  80  CALM    N/A
#IMBLER SCHOOL  N/A         45  41  86  CALM    30.17S
#ISLAND CITY 4N N/A         54  52  93  CALM    30.10S
#LADD CYN DOT   N/A         56  39  53  S10     N/A
#UNION 1S       N/A         55  43  64  S7      30.12S
$$

ORZ050-270610-
WALLOWA COUNTY

CITY            SKY/WX      TMP DP  RH  WIND    PRES   REMARKS
JOSEPH AIRPORT  CLEAR       45  39  79  S6      30.27S
#ENTERPRISE HS  N/A         45  41  86  CALM    30.23R
#IMNAHA SCHOOL  N/A         55  43  64  S1      30.20R
#IMNAHA 10S     N/A         53  41  64  SW6     30.21R
#JOSEPH 3N      N/A         40  33  76  CALM    30.25S
#JOSEPH 3W      N/A         44  39  82  SW2     30.09S
#LOSTINE        N/A         48  40  74  SE1     30.05S
#MT HOWARD 8000 N/A         45  29  53  S1      30.39R
#PROMISE 1S     N/A         46  42  86  CALM    30.33S
#SHEEP RDG 7000 N/A         47  37  68  CALM    30.26F
#WALLOWA SCHOOL N/A         45  42  89  CALM    31.19R



$$



USA.gov is the U.S. government's official web portal to all federal, state and local government web resources and services.